Time,TemperatureF,DewpointF,PressureIn,WindDirection,WindDirectionDegrees,WindSpeedMPH,WindSpeedGustMPH,Humidity,HourlyPrecipIn,Conditions,Clouds,dailyrainin,SoftwareType,DateUTC
2013-07-12 00:00:00,66.1,61.8,29.94,ENE,73,1.0,4.0,86,0.00,CLR,FEW,0.00,WeatherDisplay:10.37,2013-07-11 22:00:00,
2013-07-12 00:30:00,66.2,62.2,29.94,ENE,72,0.0,5.0,87,0.00,CLR,FEW,0.00,WeatherDisplay:10.37,2013-07-11 22:30:00,
2013-07-12 01:00:00,66.9,63.3,29.95,ENE,72,0.0,4.0,88,0.00,CLR,FEW,0.00,WeatherDisplay:10.37,2013-07-11 23:00:00,
2013-07-12 02:00:00,67.0,63.7,29.95,ENE,72,0.0,0.0,89,0.00,CLR,FEW,0.00,WeatherDisplay:10.37,2013-07-12 00:00:00,
2013-07-12 02:30:00,67.1,64.1,29.95,ENE,72,0.0,0.0,90,0.00,CLR,FEW,0.00,WeatherDisplay:10.37,2013-07-12 00:30:00,
2013-07-12 03:30:00,65.7,62.4,29.94,ENE,72,0.0,3.0,89,0.00,CLR,FEW,0.00,WeatherDisplay:10.37,2013-07-12 01:30:00,
2013-07-12 04:00:00,65.3,62.0,29.93,ENE,70,1.0,7.0,89,0.00,CLR,FEW,0.00,WeatherDisplay:10.37,2013-07-12 02:00:00,
2013-07-12 06:00:00,65.4,61.4,29.95,ENE,61,0.0,7.0,87,0.00,CLR,FEW,0.00,WeatherDisplay:10.37,2013-07-12 04:00:00,
2013-07-12 06:30:00,65.4,62.1,29.95,ENE,61,0.0,2.0,89,0.00,CLR,FEW,0.00,WeatherDisplay:10.37,2013-07-12 04:30:00,
2013-07-12 07:00:00,66.1,63.1,29.96,ENE,61,0.0,0.0,90,0.00,CLR,FEW,0.00,WeatherDisplay:10.37,2013-07-12 05:00:00,
2013-07-12 07:30:00,67.2,64.5,29.97,ENE,61,0.0,1.0,91,0.00,CLR,FEW,0.00,WeatherDisplay:10.37,2013-07-12 05:30:00,
2013-07-12 08:00:00,69.1,66.0,29.98,ENE,61,0.0,1.0,90,0.00,CLR,FEW,0.00,WeatherDisplay:10.37,2013-07-12 06:00:00,
2013-07-12 08:30:00,70.2,66.2,29.98,ENE,61,0.0,3.0,87,0.00,CLR,FEW,0.00,WeatherDisplay:10.37,2013-07-12 06:30:00,
2013-07-12 09:00:00,71.1,67.0,29.98,ENE,61,0.0,2.0,87,0.00,CLR,FEW,0.00,WeatherDisplay:10.37,2013-07-12 07:00:00,
2013-07-12 09:30:00,71.1,66.4,29.99,ENE,61,0.0,3.0,85,0.00,CLR,FEW,0.00,WeatherDisplay:10.37,2013-07-12 07:30:00,
2013-07-12 10:00:00,73.0,66.8,29.99,ENE,61,0.0,3.0,81,0.00,CLR,FEW,0.00,WeatherDisplay:10.37,2013-07-12 08:00:00,
2013-07-12 10:30:00,74.6,67.3,30.00,South,181,0.0,4.0,78,0.00,CLR,FEW,0.00,WeatherDisplay:10.37,2013-07-12 08:30:00,
2013-07-12 11:00:00,75.0,68.1,30.00,WNW,299,1.0,5.0,79,0.00,CLR,FEW,0.00,WeatherDisplay:10.37,2013-07-12 09:00:00,
2013-07-12 11:30:00,77.1,67.0,30.00,West,279,2.0,5.0,71,0.00,CLR,FEW,0.00,WeatherDisplay:10.37,2013-07-12 09:30:00,
2013-07-12 12:00:00,78.5,67.1,30.00,NW,307,3.0,6.0,68,0.00,CLR,FEW,0.00,WeatherDisplay:10.37,2013-07-12 10:00:00,
2013-07-12 12:30:00,78.8,67.8,30.00,WNW,302,2.0,5.0,69,0.00,CLR,FEW,0.00,WeatherDisplay:10.37,2013-07-12 10:30:00,
2013-07-12 13:00:00,80.2,67.4,30.00,NW,308,1.0,8.0,65,0.00,CLR,FEW,0.00,WeatherDisplay:10.37,2013-07-12 11:00:00,
2013-07-12 13:30:00,80.1,67.7,30.00,NW,307,1.0,7.0,66,0.00,CLR,FEW,0.00,WeatherDisplay:10.37,2013-07-12 11:30:00,
2013-07-12 14:00:00,80.9,69.0,29.99,West,268,1.0,6.0,67,0.00,CLR,FEW,0.00,WeatherDisplay:10.37,2013-07-12 12:00:00,
2013-07-12 14:30:00,79.8,68.7,29.99,WNW,296,2.0,7.0,69,0.00,CLR,FEW,0.00,WeatherDisplay:10.37,2013-07-12 12:30:00,
2013-07-12 15:00:00,79.9,69.3,29.99,South,174,0.0,5.0,70,0.00,CLR,FEW,0.00,WeatherDisplay:10.37,2013-07-12 13:00:00,
2013-07-12 15:30:00,79.9,68.3,29.98,WNW,303,0.0,7.0,68,0.00,CLR,FEW,0.00,WeatherDisplay:10.37,2013-07-12 13:30:00,
2013-07-12 16:00:00,81.6,68.6,29.98,NW,307,1.0,7.0,65,0.00,CLR,FEW,0.00,WeatherDisplay:10.37,2013-07-12 14:00:00,
2013-07-12 16:30:00,82.1,68.3,29.97,WNW,297,1.0,8.0,63,0.00,CLR,FEW,0.00,WeatherDisplay:10.37,2013-07-12 14:30:00,
2013-07-12 17:00:00,80.8,67.0,29.98,South,186,0.0,7.0,63,0.00,CLR,FEW,0.00,WeatherDisplay:10.37,2013-07-12 15:00:00,
2013-07-12 17:30:00,80.1,67.3,29.98,SSW,196,1.0,6.0,65,0.00,CLR,FEW,0.00,WeatherDisplay:10.37,2013-07-12 15:30:00,
2013-07-12 18:00:00,81.2,68.3,29.98,WNW,287,1.0,8.0,65,0.00,CLR,FEW,0.00,WeatherDisplay:10.37,2013-07-12 16:00:00,
2013-07-12 18:30:00,78.7,67.7,29.99,WNW,296,0.0,6.0,69,0.00,CLR,FEW,0.00,WeatherDisplay:10.37,2013-07-12 16:30:00,
2013-07-12 19:00:00,76.2,69.2,30.00,North,5,1.0,5.0,79,0.01,RA,FEW,0.01,WeatherDisplay:10.37,2013-07-12 17:00:00,
2013-07-12 19:30:00,73.0,65.7,30.01,ENE,64,1.0,5.0,78,0.01,CLR,FEW,0.01,WeatherDisplay:10.37,2013-07-12 17:30:00,
2013-07-12 20:00:00,71.1,65.6,30.02,SE,142,2.0,13.0,83,0.01,RA,FEW,0.02,WeatherDisplay:10.37,2013-07-12 18:00:00,
2013-07-12 20:30:00,70.0,66.0,30.01,ENE,66,0.0,6.0,87,0.01,CLR,FEW,0.02,WeatherDisplay:10.37,2013-07-12 18:30:00,
2013-07-12 21:00:00,68.9,64.9,30.01,ENE,66,0.0,2.0,87,0.00,CLR,FEW,0.02,WeatherDisplay:10.37,2013-07-12 19:00:00,
2013-07-12 21:30:00,67.8,63.8,30.01,East,80,0.0,6.0,87,0.00,CLR,FEW,0.02,WeatherDisplay:10.37,2013-07-12 19:30:00,
2013-07-12 22:00:00,67.6,63.6,30.02,NE,54,0.0,7.0,87,0.00,CLR,FEW,0.02,WeatherDisplay:10.37,2013-07-12 20:00:00,
2013-07-12 22:30:00,67.3,63.3,30.03,ENE,58,1.0,4.0,87,0.00,CLR,FEW,0.02,WeatherDisplay:10.37,2013-07-12 20:30:00,
2013-07-12 23:00:00,67.2,63.2,30.03,ENE,59,2.0,12.0,87,0.00,CLR,FEW,0.02,WeatherDisplay:10.37,2013-07-12 21:00:00,
2013-07-12 23:30:00,67.5,63.5,30.03,ENE,68,1.0,7.0,87,0.00,CLR,FEW,0.02,WeatherDisplay:10.37,2013-07-12 21:30:00,